[[{"header":{"parameterUnit":"m.s-1","parameterCategory":1,"la1":30.2991,"la2":30.254,"lo1":-89.0895,"lo2":-89.0444,"dy":0.0017,"dx":0.0017,"nx":28,"ny":28,"refTime":"2025-05-27T03:00:00:Z","depth":0,"parameterNumber":2,"parameterNumberName":"U-component_of_WINDS"},"data":[0,0,0,0,0,0,0,0,0,0,0,0,0,0,0,0,0,0,0,0,0,0,0,0,0,0,0,0,0,0,0,0,0,0,0,0,0,0,0,0,0,0,0,0,0,0,0,0,0,0,0,0,0,0,0,0,0,0,-3.2724,-3.2723,0,-3.2616,-3.2615,-3.2614,-3.2518,-3.2517,-3.2516,-3.2515,-3.2405,-3.2403,-3.2401,0,0,0,0,0,0,0,0,0,0,0,0,0,-3.285,-3.2848,-3.2725,-3.2723,-3.2722,-3.2616,-3.2615,-3.2613,-3.2519,-3.2517,-3.2516,-3.2515,-3.2405,-3.2403,-3.2401,0,0,0,0,0,0,0,0,0,0,0,0,0,-3.2774,-3.2848,-3.2725,-3.2662,-3.2655,-3.2617,-3.2615,-3.2613,-3.2519,-3.2517,-3.2516,-3.2514,-3.2406,-3.2403,-3.24,-3.2416,0,0,-3.2392,-3.239,0,0,0,0,0,0,0,0,-3.2778,-3.277,-3.2672,-3.2666,-3.2658,-3.2579,-3.2618,-3.2547,-3.2519,-3.2571,-3.2515,-3.2513,-3.2464,-3.2456,-3.244,-3.2411,-3.2406,-3.2391,-3.239,-3.2388,-3.2388,0,0,0,0,0,0,0,-3.2784,-3.2774,-3.2682,-3.2671,-3.2663,-3.2639,-3.2627,-3.2605,-3.2528,-3.2566,-3.2559,-3.2547,-3.246,-3.2443,-3.2436,-3.2404,-3.2391,-3.2389,-3.2387,-3.2386,-3.2383,-3.2384,0,0,0,0,0,0,-3.2799,-3.2779,-3.2685,-3.2678,-3.2716,-3.2638,-3.2624,-3.2606,-3.2528,-3.2514,-3.2549,-3.2543,-3.2448,-3.244,-3.2432,-3.2444,-3.2388,-3.2386,-3.2384,-3.2381,-3.2383,-3.2385,0,0,0,0,0,0,-3.2802,-3.2791,-3.2689,-3.2727,-3.2712,-3.2638,-3.2619,-3.2605,-3.2587,-3.2515,-3.2501,-3.2545,-3.2447,-3.2436,-3.242,-3.2439,-3.2384,-3.2382,-3.2379,-3.2382,-3.2384,-3.2469,0,0,0,0,0,0,-3.2806,-3.2793,-3.2798,-3.2727,-3.271,-3.268,-3.262,-3.2604,-3.2583,-3.2574,-3.2508,-3.2495,-3.2445,-3.2425,-3.2418,-3.2434,-3.238,-3.2377,-3.238,-3.2383,-3.2464,-3.2474,-3.2482,0,0,0,0,0,-3.2811,-3.2826,-3.2798,-3.2788,-3.2715,-3.2681,-3.2671,-3.2612,-3.2585,-3.2589,-3.2542,-3.2497,-3.2439,-3.2425,-3.2415,-3.2431,-3.2375,-3.2379,-3.2383,-3.246,-3.2472,-3.2482,0,0,0,0,0,0,-3.29,-3.2816,-3.2784,-3.2777,-3.2737,-3.2665,-3.2668,-3.2627,-3.2594,-3.2587,-3.2517,-3.2502,-3.2495,-3.2461,-3.2447,-3.2442,-3.2401,-3.2403,-3.2463,-3.2474,-3.2483,-3.249,-3.2377,0,0,0,0,0,-3.2919,-3.2899,-3.2826,-3.2827,-3.2809,-3.2743,-3.2725,-3.2684,-3.2639,-3.2622,-3.2574,-3.2533,-3.2505,-3.2488,-3.2459,-3.246,-3.2444,-3.2466,-3.2476,-3.2484,-3.2485,-3.2483,-3.2492,-3.2397,-3.2397,-3.2397,0,0,-3.2958,-3.291,-3.2901,-3.2844,-3.2808,-3.2788,-3.2728,-3.271,-3.2695,-3.2619,-3.26,-3.2565,-3.2514,-3.2507,-3.2502,-3.2479,-3.2509,-3.2488,-3.2495,-3.2492,-3.2488,-3.2497,-3.2505,-3.2399,-3.2399,-3.2398,0,0,-3.3018,-3.298,-3.2976,-3.2942,-3.2888,-3.2844,-3.2843,-3.2778,-3.2751,-3.2732,-3.2674,-3.2656,-3.261,-3.2575,-3.2552,-3.2602,-3.2559,-3.2595,-3.2642,-3.264,-3.2648,-3.2654,-3.267,-3.2677,-3.2597,-3.2598,-3.2598,0,-3.3073,-3.3041,-3.2979,-3.2964,-3.2941,-3.2873,-3.2868,-3.2838,-3.2778,-3.2763,-3.2739,-3.268,-3.2641,-3.2625,-3.2637,-3.2621,-3.2618,-3.26,-3.2652,-3.2657,-3.2662,-3.2677,-3.2684,-3.2602,-3.2602,-3.2601,-3.2601,0,-3.311,-3.3089,-3.3092,-3.3036,-3.3013,-3.3004,-3.2941,-3.2926,-3.2888,-3.2847,-3.2828,-3.278,-3.2739,-3.2733,-3.2695,-3.2711,-3.2699,-3.2665,-3.2622,-3.2677,-3.2689,-3.2695,-3.2609,-3.2607,-3.2606,-3.2604,0,0,-3.3221,-3.3132,-3.3134,-3.3107,-3.3044,-3.3026,-3.3015,-3.2975,-3.2962,-3.2924,-3.2912,-3.2875,-3.2843,-3.2817,-3.2775,-3.2775,-3.2816,-3.274,-3.2738,-3.2754,-3.283,-3.2854,-3.2862,-3.2788,-3.2789,-3.279,-3.2834,0,-3.3269,-3.3242,-3.3188,-3.3178,-3.3158,-3.3094,-3.3083,-3.3044,-3.3006,-3.2983,-3.2941,-3.2916,-3.2876,-3.286,-3.2857,-3.2812,-3.283,-3.2808,-3.2775,-3.2775,-3.2787,-3.2869,-3.2894,-3.2937,-3.2838,-3.2839,-3.284,0,-3.332,-3.3286,-3.3275,-3.3213,-3.3202,-3.3194,-3.3153,-3.3132,-3.3087,-3.3059,-3.3031,-3.2985,-3.297,-3.2933,-3.291,-3.2896,-3.288,-3.2857,-3.2857,-3.2849,-3.2809,-3.2862,-3.295,-3.2956,-3.2847,-3.2847,-3.2846,0,-3.34,-3.3351,-3.3338,-3.3317,-3.3245,-3.3241,-3.3211,-3.3163,-3.3143,-3.3108,-3.3094,-3.3059,-3.3039,-3.3013,-3.2959,-3.2937,-3.2942,-3.29,-3.2918,-3.2919,-3.2919,-3.2919,-3.3004,-3.2913,-3.2913,-3.2913,-3.2913,0,-3.3458,-3.3453,-3.3372,-3.3364,-3.3357,-3.3295,-3.329,-3.3254,-3.3213,-3.3197,-3.3141,-3.3127,-3.3057,-3.3036,-3.2994,-3.2981,-3.2973,-3.295,-3.2938,-3.2953,-3.2956,-3.294,-3.2935,-3.2915,-3.2915,-3.2914,-3.2914,0,-3.3544,-3.349,-3.3471,-3.3405,-3.3389,-3.3386,-3.333,-3.3319,-3.3279,-3.3259,-3.3251,-3.3188,-3.3159,-3.3104,-3.3061,-3.3033,-3.3028,-3.301,-3.3043,-3.3036,-3.3056,-3.3054,-3.3131,-3.3137,-3.3045,-3.3046,-3.3047,0,-3.3583,-3.3578,-3.3512,-3.3497,-3.3469,-3.3446,-3.3425,-3.3365,-3.3346,-3.3294,-3.329,-3.3257,-3.3227,-3.3186,-3.3136,-3.3102,-3.3081,-3.3111,-3.3075,-3.3091,-3.3079,-3.3079,-3.3078,-3.3118,-3.3119,-3.312,-3.3121,0,-3.3658,-3.3632,-3.3604,-3.3567,-3.3544,-3.3512,-3.3477,-3.3468,-3.34,-3.3382,-3.3352,-3.3329,-3.3285,-3.3253,-3.3212,-3.3182,-3.314,-3.3133,-3.3135,-3.3148,-3.3167,-3.3156,-3.3062,-3.313,-3.3129,-3.3129,-3.3128,-3.3128,-3.372,-3.3712,-3.3665,-3.3635,-3.3603,-3.3572,-3.3559,-3.3517,-3.3491,-3.345,-3.3417,-3.339,-3.3346,-3.3287,-3.3259,-3.3238,-3.3217,-3.3221,-3.3221,-3.3222,-3.3228,-3.3174,-3.323,-3.323,-3.323,-3.3229,-3.3229,0,-3.379,-3.3757,-3.3731,-3.3683,-3.3661,-3.3625,-3.3585,-3.3568,-3.3545,-3.3507,-3.3479,-3.3445,-3.3414,-3.3363,-3.3328,-3.3321,-3.3301,-3.3314,-3.3312,-3.3306,-3.3248,-3.3249,-3.333,-3.333,-3.333,-3.333,-3.333,-3.333,-3.3824,-3.3808,-3.3777,-3.3745,-3.3711,-3.3684,-3.3664,-3.3636,-3.3605,-3.3569,-3.3543,-3.351,-3.3467,-3.3429,-3.3399,-3.3385,-3.3374,-3.3393,-3.3372,-3.3319,-3.331,-3.3301,-3.3301,-3.3391,-3.3391,-3.3431,-3.3431,-3.3431]},{"header":{"parameterUnit":"m.s-1","parameterCategory":1,"la1":30.2991,"la2":30.254,"lo1":-89.0895,"lo2":-89.0444,"dy":0.0017,"dx":0.0017,"nx":28,"ny":28,"refTime":"2025-05-27T03:00:00:Z","depth":0,"parameterNumber":3,"parameterNumberName":"V-component_of_WINDS"},"data":[0,0,0,0,0,0,0,0,0,0,0,0,0,0,0,0,0,0,0,0,0,0,0,0,0,0,0,0,0,0,0,0,0,0,0,0,0,0,0,0,0,0,0,0,0,0,0,0,0,0,0,0,0,0,0,0,0,0,3.1315,3.1314,0,3.1284,3.1284,3.1283,3.1316,3.1318,3.1319,3.132,3.1281,3.1279,3.1276,0,0,0,0,0,0,0,0,0,0,0,0,0,3.1395,3.1393,3.1315,3.1314,3.1314,3.1284,3.1284,3.1283,3.1316,3.1318,3.1319,3.1321,3.1282,3.1279,3.1276,0,0,0,0,0,0,0,0,0,0,0,0,0,3.1362,3.1393,3.1315,3.1327,3.1328,3.1284,3.1284,3.1283,3.1316,3.1318,3.132,3.1322,3.1283,3.1279,3.1276,3.1216,0,0,3.1266,3.1264,0,0,0,0,0,0,0,0,3.1363,3.1359,3.1325,3.1326,3.1327,3.1306,3.1298,3.126,3.1315,3.132,3.132,3.1322,3.1287,3.1284,3.1273,3.1214,3.1213,3.1265,3.1263,3.1262,3.1261,0,0,0,0,0,0,0,3.1366,3.136,3.1302,3.1325,3.1326,3.1332,3.1329,3.1291,3.1293,3.132,3.1322,3.1319,3.1288,3.1276,3.1273,3.1212,3.1265,3.1262,3.126,3.1259,3.1103,3.1101,0,0,0,0,0,0,3.1368,3.1362,3.1303,3.1301,3.1351,3.1329,3.1326,3.1311,3.1293,3.1293,3.1317,3.132,3.1281,3.1277,3.1271,3.1201,3.1262,3.1259,3.1257,3.1105,3.1103,3.1101,0,0,0,0,0,0,3.1369,3.1362,3.1304,3.1332,3.1325,3.1325,3.1308,3.1309,3.1298,3.1291,3.1291,3.1305,3.1283,3.1276,3.123,3.12,3.1257,3.1254,3.1108,3.1105,3.1102,3.1059,0,0,0,0,0,0,3.1371,3.1363,3.1341,3.1332,3.1324,3.1266,3.1306,3.1307,3.1293,3.1297,3.128,3.1279,3.1284,3.1235,3.1227,3.1196,3.1251,3.1111,3.1106,3.1103,3.1063,3.1055,3.1047,0,0,0,0,0,3.1374,3.1328,3.134,3.1333,3.1298,3.1264,3.1259,3.1267,3.129,3.1268,3.1264,3.128,3.1205,3.123,3.1221,3.1189,3.1112,3.1108,3.1103,3.1066,3.1056,3.1048,0,0,0,0,0,0,3.1331,3.1327,3.134,3.129,3.1278,3.127,3.1242,3.1256,3.1234,3.1239,3.1247,3.1243,3.1195,3.1187,3.1216,3.1131,3.1162,3.1155,3.1137,3.1128,3.112,3.1122,3.1249,0,0,0,0,0,3.1317,3.1292,3.1289,3.1245,3.1239,3.1241,3.1227,3.1235,3.1221,3.1214,3.1207,3.1191,3.1164,3.1145,3.112,3.1063,3.1059,3.1036,3.1028,3.1022,3.1015,3.0984,3.0974,3.1085,3.1085,3.1085,0,0,3.1285,3.128,3.1263,3.1237,3.1228,3.12,3.1236,3.1205,3.1184,3.1209,3.1166,3.116,3.1142,3.1091,3.1068,3.1083,3.0984,3.1016,3.1011,3.1008,3.0979,3.0968,3.0959,3.1082,3.1082,3.1083,0,0,3.1213,3.1207,3.1171,3.1162,3.1149,3.1151,3.1143,3.1133,3.1131,3.1089,3.1107,3.1081,3.1034,3.1021,3.1008,3.0934,3.0947,3.0925,3.0884,3.0854,3.0845,3.0837,3.081,3.08,3.0919,3.0919,3.0918,0,3.1174,3.1136,3.1149,3.1118,3.1105,3.113,3.1092,3.1081,3.1059,3.1049,3.1068,3.1011,3.1,3.0946,3.0928,3.0917,3.0906,3.0926,3.0846,3.0838,3.0831,3.0805,3.0795,3.0916,3.0916,3.0916,3.0917,0,3.1089,3.1062,3.1034,3.1016,3.1,3.0965,3.0971,3.0953,3.0963,3.0963,3.0919,3.0908,3.0881,3.0869,3.0877,3.0816,3.0826,3.0845,3.0876,3.0817,3.0793,3.0784,3.0912,3.0913,3.0914,3.0914,0,0,3.0987,3.0979,3.0969,3.0961,3.095,3.0928,3.0894,3.0871,3.0855,3.0839,3.081,3.0771,3.0789,3.0774,3.078,3.0754,3.0695,3.0776,3.0776,3.0761,3.0627,3.0613,3.0602,3.0705,3.0703,3.0702,3.0629,0,3.0915,3.086,3.0871,3.0816,3.079,3.0814,3.0784,3.0773,3.0772,3.0749,3.0747,3.0719,3.0745,3.0737,3.0712,3.0708,3.0668,3.0713,3.0676,3.0675,3.0679,3.0589,3.0574,3.0505,3.062,3.0618,3.0617,0,3.0824,3.0808,3.0751,3.0745,3.0735,3.0708,3.0688,3.0666,3.0654,3.0655,3.064,3.0652,3.0616,3.0649,3.0599,3.063,3.0615,3.0611,3.0608,3.0604,3.0641,3.0582,3.0484,3.0473,3.0602,3.0603,3.0604,0,3.0755,3.072,3.0681,3.0674,3.0666,3.0647,3.0642,3.0631,3.0617,3.0599,3.0589,3.0566,3.0553,3.0534,3.0538,3.0562,3.0487,3.0521,3.0486,3.0486,3.0468,3.0469,3.0365,3.046,3.046,3.046,3.046,0,3.0673,3.0637,3.0651,3.0627,3.0587,3.06,3.0559,3.0557,3.0547,3.0522,3.054,3.0515,3.0523,3.0498,3.0501,3.046,3.0453,3.0452,3.0453,3.045,3.045,3.044,3.0445,3.0457,3.0458,3.0458,3.0459,0,3.059,3.0598,3.0557,3.0554,3.0552,3.0523,3.0519,3.0495,3.0497,3.0465,3.0458,3.0459,3.0431,3.0434,3.0402,3.0404,3.0352,3.0359,3.0357,3.0358,3.0323,3.0326,3.0209,3.0194,3.0298,3.0297,3.0297,0,3.0536,3.051,3.0505,3.0491,3.0485,3.0462,3.0448,3.046,3.0444,3.0429,3.0407,3.0381,3.0361,3.0315,3.0312,3.0287,3.0293,3.0254,3.0289,3.0287,3.0292,3.0293,3.029,3.0246,3.0245,3.0244,3.0243,0,3.0441,3.0447,3.0428,3.0411,3.0395,3.0381,3.0369,3.0355,3.0366,3.0347,3.0321,3.0305,3.0274,3.0247,3.0225,3.0217,3.0231,3.0232,3.0223,3.0219,3.0219,3.0218,3.0337,3.0235,3.0235,3.0236,3.0237,3.0237,3.0371,3.0349,3.0342,3.0321,3.0313,3.0302,3.028,3.0281,3.026,3.0237,3.0244,3.0214,3.0202,3.0173,3.0164,3.0138,3.0152,3.0138,3.0135,3.0131,3.0127,3.0224,3.0134,3.0134,3.0134,3.0135,3.0135,0,3.0277,3.0274,3.0255,3.0239,3.0221,3.024,3.0227,3.0211,3.0184,3.0173,3.0155,3.0123,3.0098,3.0094,3.007,3.0051,3.0056,3.0044,3.0045,3.0043,3.0116,3.0127,3.004,3.004,3.004,3.004,3.004,3.004,3.0225,3.0189,3.0194,3.0154,3.0151,3.0124,3.0115,3.0104,3.0096,3.0061,3.0042,3.004,3.0032,3.0007,2.9985,2.9984,2.9974,2.9958,2.996,3.0028,3.0037,3.0047,3.0057,2.9956,2.9956,2.9889,2.9888,2.9888]}]]